sat.trackr.live / text

‹ back to catalog

STARLINK-33659

NORAD 63445 · 2025-069N

PAYLOAD ACTIVE UNKNOWN

§ Identity

Operator
Country
US
Launch date
2025-04-04
Launch site
AFWTR
Launch vehicle
Mass (kg)
RCS (m²)

Purposes: comms

External: N2YO · Heavens-Above · Gunter

§ Orbital elements

Epoch: 2026-09-20T11:32:03.017472Z

Period
93.85 min
Inclination
53.1605°
Eccentricity
0.0001196
Mean motion
15.34410452 rev/d
Perigee alt
461.9 km
Apogee alt
463.5 km
Semi-major
6,840.8 km
B*
7.7385e-4
RAAN
308.0499°
Arg perigee
85.1371°
Mean anomaly
274.9768°
Rev number
8,331

§ Raw data

STARLINK-336591 63445U 25069N   26263.48059048  .00025868  00000+0  77385-3 0  99922 63445  53.1605 308.0499 0001196  85.1371 274.9768 15.34410452 83316

JSON: /api/v1/satellites/63445 · /tle

For live sub-satellite position, see the globe view (requires WebGL).

§ Visibility from observer

Set your observer location to see the next 7 days of passes ≥ 10°. The values pass through the URL so the page stays shareable.

No JS? Fill the form by hand. The geolocation button needs JavaScript.